,,Stat5,,Stat1,,Stat2,,Stat3,,Stat4,,Wind1,,Wind1,
time,status,PA1M_AVG,status,PR1M_SUM,status,RH1M_AVG,status,SR1M_AVG,status,TA1M_AVG,status,W1dAve1m,status,W1sAve1m,
2003-04-26, 00:00:01,VALID,916.158,VALID,0,VALID,97.7228,VALID,0.169808,VALID,21.0189,VALID,357,VALID,0.0811298,
2003-04-26, 00:01:00,VALID,916.158,VALID,0,VALID,97.733,VALID,0.101885,VALID,21.0292,VALID,357,VALID,0.214021,
2003-04-26, 00:02:01,VALID,916.144,VALID,0,VALID,97.677,VALID,0.0679233,VALID,21.0386,VALID,357,VALID,0.306424,
2003-04-26, 00:03:00,VALID,916.143,VALID,0,VALID,97.6084,VALID,0.118866,VALID,21.0391,VALID,357,VALID,0.323351,
2003-04-26, 00:04:00,VALID,916.135,VALID,0,VALID,97.6618,VALID,0.135847,VALID,21.0419,VALID,360,VALID,0.465993,
2003-04-26, 00:05:00,VALID,916.129,VALID,0,VALID,97.6821,VALID,0.135847,VALID,21.058,VALID,6,VALID,0.548214,
2003-04-26, 00:06:01,VALID,916.125,VALID,0,VALID,97.6109,VALID,0.135847,VALID,21.068,VALID,10,VALID,0.769631,
2003-04-26, 00:07:00,VALID,916.119,VALID,0,VALID,97.4888,VALID,0.135847,VALID,21.0481,VALID,11,VALID,0.720439,
2003-04-26, 00:08:01,VALID,916.106,VALID,0,VALID,97.4049,VALID,0.0679233,VALID,21.0356,VALID,12,VALID,1.08409,
2003-04-26, 00:09:00,VALID,916.103,VALID,0,VALID,97.3579,VALID,0.20377,VALID,21.0055,VALID,18,VALID,1.01652,
2003-04-26, 00:10:01,VALID,916.113,VALID,0,VALID,97.4977,VALID,0.220751,VALID,20.9823,VALID,10,VALID,0.982572,
2003-04-26, 00:11:01,VALID,916.098,VALID,0,VALID,97.5702,VALID,0.169808,VALID,20.9564,VALID,4,VALID,0.95715,
2003-04-26, 00:12:00,VALID,916.091,VALID,0,VALID,97.616,VALID,0.186789,VALID,20.9206,VALID,8,VALID,0.827691,
2003-04-26, 00:13:00,VALID,916.097,VALID,0,VALID,97.7444,VALID,0.220751,VALID,20.9181,VALID,9,VALID,0.871711,
2003-04-26, 00:14:00,VALID,916.075,VALID,0,VALID,97.7762,VALID,0.20377,VALID,20.9047,VALID,347,VALID,0.569727,
2003-04-26, 00:15:00,VALID,916.07,VALID,0,VALID,97.8398,VALID,0.152827,VALID,20.8982,VALID,3,VALID,0.875,
2003-04-26, 00:16:00,VALID,916.059,VALID,0,VALID,97.8856,VALID,0.169808,VALID,20.8923,VALID,347,VALID,0.422743,
2003-04-26, 00:17:00,VALID,916.054,VALID,0,VALID,97.9263,VALID,0.237732,VALID,20.8753,VALID,17,VALID,0.649523,
2003-04-26, 00:18:00,VALID,916.035,VALID,0,VALID,97.9657,VALID,0.20377,VALID,20.9049,VALID,1,VALID,0.839614,
2003-04-26, 00:19:00,VALID,916.003,VALID,0,VALID,97.9377,VALID,0.20377,VALID,20.8987,VALID,351,VALID,0.607143,
2003-04-26, 00:20:01,VALID,916.002,VALID,0,VALID,97.9809,VALID,0.220751,VALID,20.8853,VALID,5,VALID,0.573518,
2003-04-26, 00:21:00,VALID,915.987,VALID,0,VALID,97.9797,VALID,0.20377,VALID,20.882,VALID,4,VALID,0.579392,
2003-04-26, 00:22:01,VALID,915.972,VALID,0,VALID,97.9619,VALID,0.20377,VALID,20.8688,VALID,353,VALID,0.360814,
2003-04-26, 00:23:00,VALID,915.95,VALID,0,VALID,97.9848,VALID,0.20377,VALID,20.8597,VALID,350,VALID,0.588616,
2003-04-26, 00:24:01,VALID,915.932,VALID,0,VALID,98.0267,VALID,0.237732,VALID,20.8465,VALID,356,VALID,0.514223,
2003-04-26, 00:25:00,VALID,915.923,VALID,0,VALID,98.0916,VALID,0.186789,VALID,20.8567,VALID,2,VALID,0.536695,
2003-04-26, 00:26:00,VALID,915.917,VALID,0,VALID,98.159,VALID,0.254712,VALID,20.8524,VALID,2,VALID,0.119575,
2003-04-26, 00:27:00,VALID,915.924,VALID,0,VALID,98.1755,VALID,0.135847,VALID,20.8586,VALID,6,VALID,0.296258,
2003-04-26, 00:28:00,VALID,915.911,VALID,0,VALID,98.159,VALID,0.20377,VALID,20.8731,VALID,15,VALID,0.86875,
2003-04-26, 00:29:00,VALID,915.905,VALID,0,VALID,98.1132,VALID,0.186789,VALID,20.8599,VALID,9,VALID,0.692383,
2003-04-26, 00:30:00,VALID,915.91,VALID,0,VALID,98.1323,VALID,0.237732,VALID,20.8335,VALID,360,VALID,0.832682,
2003-04-26, 00:31:00,VALID,915.896,VALID,0,VALID,98.1691,VALID,0.186789,VALID,20.8395,VALID,358,VALID,0.73546,
2003-04-26, 00:32:00,VALID,915.884,VALID,0,VALID,98.1882,VALID,0.220751,VALID,20.8335,VALID,314,VALID,0.648208,
2003-04-26, 00:33:00,VALID,915.871,VALID,0,VALID,98.1831,VALID,0.152827,VALID,20.8303,VALID,285,VALID,0.171205,
2003-04-26, 00:34:01,VALID,915.866,VALID,0,VALID,98.2289,VALID,0.20377,VALID,20.8303,VALID,320,VALID,0.558093,
2003-04-26, 00:35:01,VALID,915.861,VALID,0,VALID,98.2086,VALID,0.135847,VALID,20.8173,VALID,12,VALID,0.838682,
2003-04-26, 00:36:01,VALID,915.863,VALID,0,VALID,98.2963,VALID,0.135847,VALID,20.8308,VALID,25,VALID,0.367599,
2003-04-26, 00:37:00,VALID,915.866,VALID,0,VALID,98.3154,VALID,0.220751,VALID,20.8305,VALID,24,VALID,0.0685268,
2003-04-26, 00:38:01,VALID,915.872,VALID,0,VALID,98.3268,VALID,0.152827,VALID,20.8139,VALID,24,VALID,0.15024,
2003-04-26, 00:39:00,VALID,915.862,VALID,0,VALID,98.3662,VALID,0.186789,VALID,20.8373,VALID,24,VALID,0.0423769,
2003-04-26, 00:40:00,VALID,915.863,VALID,0,VALID,98.3866,VALID,0.20377,VALID,20.8403,VALID,54,VALID,0.157552,
2003-04-26, 00:41:01,VALID,915.852,VALID,0,VALID,98.4235,VALID,0.20377,VALID,20.8502,VALID,75,VALID,0.0758635,
2003-04-26, 00:42:00,VALID,915.855,VALID,0,VALID,98.501,VALID,0.220751,VALID,20.8702,VALID,50,VALID,0.349805,
2003-04-26, 00:43:00,VALID,915.846,VALID,0,VALID,98.529,VALID,0.169808,VALID,20.8923,VALID,49,VALID,0.28125,
2003-04-26, 00:44:00,VALID,915.838,VALID,0,VALID,98.5659,VALID,0.20377,VALID,20.9146,VALID,47,VALID,0.280382,
2003-04-26, 00:45:00,VALID,915.838,VALID,0,VALID,98.5621,VALID,0.186789,VALID,20.9445,VALID,45,VALID,0.0262587,
2003-04-26, 00:46:00,VALID,915.815,VALID,0,VALID,98.5163,VALID,0.186789,VALID,20.947,VALID,45,VALID,0,
2003-04-26, 00:47:00,VALID,915.813,VALID,0,VALID,98.4756,VALID,0.20377,VALID,20.9537,VALID,45,VALID,0,
2003-04-26, 00:48:01,VALID,915.814,VALID,0,VALID,98.4298,VALID,0.271693,VALID,20.9632,VALID,45,VALID,0,
2003-04-26, 00:49:00,VALID,915.813,VALID,0,VALID,98.4375,VALID,0.20377,VALID,20.9567,VALID,45,VALID,0,
2003-04-26, 00:50:01,VALID,915.807,VALID,0,VALID,98.4502,VALID,0.20377,VALID,20.9634,VALID,45,VALID,0.0583882,
2003-04-26, 00:51:00,VALID,915.8,VALID,0,VALID,98.4527,VALID,0.254712,VALID,20.9823,VALID,45,VALID,0.100223,
2003-04-26, 00:52:01,VALID,915.809,VALID,0,VALID,98.4222,VALID,0.254712,VALID,20.9659,VALID,44,VALID,0.0705128,
2003-04-26, 00:53:00,VALID,915.788,VALID,0,VALID,98.4756,VALID,0.220751,VALID,20.9893,VALID,44,VALID,0.454072,
2003-04-26, 00:54:00,VALID,915.782,VALID,0,VALID,98.5074,VALID,0.169808,VALID,21.01,VALID,41,VALID,0.633898,
2003-04-26, 00:55:00,VALID,915.759,VALID,0,VALID,98.482,VALID,0.135847,VALID,21.02,VALID,34,VALID,0.708882,
2003-04-26, 00:56:00,VALID,915.748,VALID,0,VALID,98.4845,VALID,0.0849042,VALID,21.0389,VALID,41,VALID,0.393164,
2003-04-26, 00:57:00,VALID,915.722,VALID,0,VALID,98.4858,VALID,0.118866,VALID,21.0459,VALID,33,VALID,0.474609,
2003-04-26, 00:58:00,VALID,915.699,VALID,0,VALID,98.44,VALID,0.101885,VALID,21.0553,VALID,26,VALID,0.179688,
2003-04-26, 00:59:01,VALID,915.682,VALID,0,VALID,98.3573,VALID,0.152827,VALID,21.0424,VALID,26,VALID,0.0985243,
2003-04-26, 01:00:00,VALID,915.684,VALID,0,VALID,98.2823,VALID,0.0509425,VALID,21.0162,VALID,26,VALID,0,
2003-04-26, 01:01:00,VALID,915.653,VALID,0,VALID,98.2302,VALID,0.118866,VALID,21.0036,VALID,26,VALID,0,
2003-04-26, 01:02:01,VALID,915.637,VALID,0,VALID,98.1742,VALID,0.0509425,VALID,21.0001,VALID,26,VALID,0,
2003-04-26, 01:03:00,VALID,915.639,VALID,0,VALID,98.1806,VALID,0.118866,VALID,21.0073,VALID,26,VALID,0,
2003-04-26, 01:04:01,VALID,915.634,VALID,0,VALID,98.1157,VALID,0.0679233,VALID,20.9877,VALID,26,VALID,0.00616776,
2003-04-26, 01:05:00,VALID,915.626,VALID,0,VALID,98.1196,VALID,0.152827,VALID,20.9812,VALID,26,VALID,0,
2003-04-26, 01:06:01,VALID,915.605,VALID,0,VALID,98.1615,VALID,0.0849042,VALID,20.978,VALID,26,VALID,0.0010016,
2003-04-26, 01:07:00,VALID,915.589,VALID,0,VALID,98.2276,VALID,0.152827,VALID,20.9774,VALID,26,VALID,0.00094697,
2003-04-26, 01:08:00,VALID,915.578,VALID,0,VALID,98.2213,VALID,0.0509425,VALID,20.9939,VALID,26,VALID,0,
2003-04-26, 01:09:00,VALID,915.56,VALID,0,VALID,98.2009,VALID,0.169808,VALID,21.0022,VALID,26,VALID,0.123972,
2003-04-26, 01:10:00,VALID,915.551,VALID,0,VALID,98.2238,VALID,0.169808,VALID,20.9979,VALID,26,VALID,0.478711,
2003-04-26, 01:11:00,VALID,915.534,VALID,0,VALID,98.2225,VALID,0.186789,VALID,21.0087,VALID,25,VALID,0.533008,
2003-04-26, 01:12:00,VALID,915.501,VALID,0,VALID,98.248,VALID,0.254712,VALID,21.0117,VALID,25,VALID,0.630859,
2003-04-26, 01:13:01,VALID,915.497,VALID,0,VALID,98.2671,VALID,0.186789,VALID,21.0182,VALID,25,VALID,0.549045,
2003-04-26, 01:14:00,VALID,915.475,VALID,0,VALID,98.2442,VALID,0.20377,VALID,21.0321,VALID,25,VALID,0.418199,
2003-04-26, 01:15:01,VALID,915.456,VALID,0,VALID,98.2353,VALID,0.186789,VALID,21.0249,VALID,25,VALID,0.23683,
2003-04-26, 01:16:01,VALID,915.437,VALID,0,VALID,98.2162,VALID,0.186789,VALID,21.0246,VALID,25,VALID,0.00520833,
2003-04-26, 01:17:01,VALID,915.384,VALID,0,VALID,98.1424,VALID,0.254712,VALID,21.0022,VALID,25,VALID,0,
2003-04-26, 01:18:01,VALID,915.384,VALID,0,VALID,98.1081,VALID,0.20377,VALID,20.9993,VALID,25,VALID,0,
2003-04-26, 01:19:00,VALID,915.375,VALID,0,VALID,98.1526,VALID,0.254712,VALID,21.0052,VALID,25,VALID,0,
2003-04-26, 01:20:01,VALID,915.35,VALID,0,VALID,98.1526,VALID,0.20377,VALID,21.0022,VALID,25,VALID,0,
2003-04-26, 01:21:01,VALID,915.338,VALID,0,VALID,98.1285,VALID,0.152827,VALID,20.9987,VALID,25,VALID,0,
2003-04-26, 01:22:01,VALID,915.324,VALID,0,VALID,98.103,VALID,0.169808,VALID,20.9955,VALID,25,VALID,0,
2003-04-26, 01:23:00,VALID,915.301,VALID,0,VALID,98.1297,VALID,0.20377,VALID,20.9952,VALID,25,VALID,0,
2003-04-26, 01:24:01,VALID,915.3,VALID,0,VALID,98.1399,VALID,0.169808,VALID,21.0119,VALID,25,VALID,0.373828,
2003-04-26, 01:25:00,VALID,915.286,VALID,0,VALID,98.1615,VALID,0.152827,VALID,21.0246,VALID,25,VALID,0.636719,
2003-04-26, 01:26:01,VALID,915.278,VALID,0,VALID,98.1857,VALID,0.186789,VALID,21.0378,VALID,25,VALID,0.743056,
2003-04-26, 01:27:00,VALID,915.275,VALID,0,VALID,98.2315,VALID,0.237732,VALID,21.0508,VALID,20,VALID,0.624566,
2003-04-26, 01:28:00,VALID,915.275,VALID,0,VALID,98.1463,VALID,0.169808,VALID,21.0707,VALID,15,VALID,0.815717,
2003-04-26, 01:29:01,VALID,915.255,VALID,0,VALID,98.0623,VALID,0.169808,VALID,21.0349,VALID,14,VALID,0.698884,
2003-04-26, 01:30:01,VALID,915.248,VALID,0,VALID,98.0483,VALID,0.169808,VALID,21.0246,VALID,14,VALID,0.641426,
2003-04-26, 01:31:01,VALID,915.234,VALID,0,VALID,98.0089,VALID,0.186789,VALID,21.0154,VALID,14,VALID,0.434122,
2003-04-26, 01:32:01,VALID,915.221,VALID,0,VALID,98.0026,VALID,0.169808,VALID,20.992,VALID,14,VALID,0.162829,
2003-04-26, 01:33:01,VALID,915.208,VALID,0,VALID,98.0814,VALID,0.20377,VALID,20.9793,VALID,14,VALID,0.0285714,
2003-04-26, 01:34:01,VALID,915.183,VALID,0,VALID,98.1297,VALID,0.220751,VALID,20.9858,VALID,16,VALID,0.0386619,
2003-04-26, 01:35:01,VALID,915.15,VALID,0,VALID,98.0992,VALID,0.169808,VALID,20.9796,VALID,48,VALID,0.212121,
2003-04-26, 01:36:01,VALID,915.128,VALID,0,VALID,98.0878,VALID,0.254712,VALID,20.9831,VALID,48,VALID,0,
2003-04-26, 01:37:01,VALID,915.102,VALID,0,VALID,98.0979,VALID,0.169808,VALID,20.9661,VALID,48,VALID,0,
2003-04-26, 01:38:01,VALID,915.082,VALID,0,VALID,98.1348,VALID,0.186789,VALID,20.9734,VALID,48,VALID,0,
2003-04-26, 01:39:01,VALID,915.08,VALID,0,VALID,98.1602,VALID,0.186789,VALID,20.9696,VALID,48,VALID,0,
2003-04-26, 01:40:01,VALID,915.068,VALID,0,VALID,98.1374,VALID,0.20377,VALID,20.9764,VALID,48,VALID,0.0390625,
2003-04-26, 01:41:01,VALID,915.074,VALID,0,VALID,98.1679,VALID,0.237732,VALID,20.9826,VALID,48,VALID,0.00759549,
2003-04-26, 01:42:01,VALID,915.071,VALID,0,VALID,98.1043,VALID,0.220751,VALID,20.9766,VALID,48,VALID,0,
2003-04-26, 01:43:01,VALID,915.08,VALID,0,VALID,98.0903,VALID,0.186789,VALID,20.9702,VALID,48,VALID,0.000892857,
2003-04-26, 01:44:01,VALID,915.073,VALID,0,VALID,98.1933,VALID,0.220751,VALID,20.9669,VALID,48,VALID,0.0428686,
2003-04-26, 01:45:01,VALID,915.075,VALID,0,VALID,98.281,VALID,0.220751,VALID,20.9799,VALID,48,VALID,0.0846706,
2003-04-26, 01:46:01,VALID,915.075,VALID,0,VALID,98.3256,VALID,0.152827,VALID,20.9958,VALID,48,VALID,0.198602,
2003-04-26, 01:47:01,VALID,915.048,VALID,0,VALID,98.2645,VALID,0.254712,VALID,21.0022,VALID,49,VALID,0.264062,
2003-04-26, 01:48:01,VALID,915.042,VALID,0,VALID,98.178,VALID,0.186789,VALID,21.0025,VALID,49,VALID,0.43129,
2003-04-26, 01:49:01,VALID,915.006,VALID,0,VALID,98.1997,VALID,0.220751,VALID,21.0052,VALID,38,VALID,0.308475,
2003-04-26, 01:50:01,VALID,914.992,VALID,0,VALID,98.2175,VALID,0.237732,VALID,21.0281,VALID,36,VALID,0.249566,
2003-04-26, 01:51:00,VALID,914.97,VALID,0,VALID,98.1043,VALID,0.254712,VALID,21.0187,VALID,36,VALID,0.127056,
2003-04-26, 01:52:00,VALID,914.953,VALID,0,VALID,98.0509,VALID,0.288674,VALID,21.0152,VALID,36,VALID,0.0460938,
2003-04-26, 01:53:00,VALID,914.943,VALID,0,VALID,98.0407,VALID,0.20377,VALID,21.0055,VALID,36,VALID,0.0509766,
2003-04-26, 01:54:00,VALID,914.942,VALID,0,VALID,98.0865,VALID,0.254712,VALID,21.0052,VALID,36,VALID,0.258898,
2003-04-26, 01:55:00,VALID,914.947,VALID,0,VALID,98.1208,VALID,0.271693,VALID,21.0411,VALID,36,VALID,0.271484,
2003-04-26, 01:56:00,VALID,914.959,VALID,0,VALID,98.1348,VALID,0.220751,VALID,21.044,VALID,36,VALID,0.323759,
2003-04-26, 01:57:00,VALID,914.977,VALID,0,VALID,98.0649,VALID,0.254712,VALID,21.0365,VALID,36,VALID,0.278795,
2003-04-26, 01:58:00,VALID,914.982,VALID,0,VALID,97.9606,VALID,0.305655,VALID,21.0494,VALID,36,VALID,0.157652,
2003-04-26, 01:59:00,VALID,914.993,VALID,0,VALID,97.9975,VALID,0.288674,VALID,21.0537,VALID,36,VALID,0,
2003-04-26, 02:00:00,VALID,914.993,VALID,0,VALID,97.9581,VALID,0.237732,VALID,21.0532,VALID,36,VALID,0.0639391,
2003-04-26, 02:01:00,VALID,914.985,VALID,0,VALID,97.8868,VALID,0.271693,VALID,21.0599,VALID,36,VALID,0,
2003-04-26, 02:02:00,VALID,914.975,VALID,0,VALID,97.7495,VALID,0.254712,VALID,21.0244,VALID,36,VALID,0.000801282,
2003-04-26, 02:03:00,VALID,914.963,VALID,0,VALID,97.6885,VALID,0.237732,VALID,21.0082,VALID,36,VALID,0.0506629,
2003-04-26, 02:04:00,VALID,914.94,VALID,0,VALID,97.7165,VALID,0.254712,VALID,21.0152,VALID,31,VALID,0.103299,
2003-04-26, 02:05:00,VALID,914.929,VALID,0,VALID,97.6503,VALID,0.237732,VALID,20.9888,VALID,275,VALID,0.363487,
2003-04-26, 02:06:00,VALID,914.921,VALID,0,VALID,97.6262,VALID,0.20377,VALID,20.9659,VALID,275,VALID,0.283008,
2003-04-26, 02:07:00,VALID,914.92,VALID,0,VALID,97.7063,VALID,0.237732,VALID,20.9529,VALID,274,VALID,0.303516,
2003-04-26, 02:08:00,VALID,914.921,VALID,0,VALID,97.8182,VALID,0.220751,VALID,20.9432,VALID,267,VALID,0.309028,
2003-04-26, 02:09:00,VALID,914.916,VALID,0,VALID,97.9072,VALID,0.271693,VALID,20.9432,VALID,215,VALID,0.481988,
2003-04-26, 02:10:00,VALID,914.909,VALID,0,VALID,97.972,VALID,0.254712,VALID,20.9502,VALID,208,VALID,0.30193,
2003-04-26, 02:11:00,VALID,914.894,VALID,0,VALID,98.0255,VALID,0.288674,VALID,20.9273,VALID,231,VALID,0.521875,
2003-04-26, 02:12:00,VALID,914.876,VALID,0,VALID,98.1056,VALID,0.20377,VALID,20.9206,VALID,227,VALID,0.484976,
2003-04-26, 02:13:00,VALID,914.862,VALID,0,VALID,98.178,VALID,0.288674,VALID,20.8979,VALID,229,VALID,0.426098,
2003-04-26, 02:14:00,VALID,914.859,VALID,0,VALID,98.2098,VALID,0.237732,VALID,20.8985,VALID,227,VALID,0.460938,
2003-04-26, 02:15:00,VALID,914.843,VALID,0,VALID,98.262,VALID,0.288674,VALID,20.8659,VALID,216,VALID,0.209375,
2003-04-26, 02:16:00,VALID,914.833,VALID,0,VALID,98.323,VALID,0.237732,VALID,20.8656,VALID,220,VALID,0.365184,
2003-04-26, 02:17:00,VALID,914.84,VALID,0,VALID,98.3001,VALID,0.271693,VALID,20.8171,VALID,226,VALID,0.261364,
2003-04-26, 02:18:00,VALID,914.836,VALID,0,VALID,98.3586,VALID,0.20377,VALID,20.8241,VALID,228,VALID,0.031467,
2003-04-26, 02:19:00,VALID,914.832,VALID,0,VALID,98.454,VALID,0.20377,VALID,20.8201,VALID,228,VALID,0.0219984,
2003-04-26, 02:20:00,VALID,914.837,VALID,0,VALID,98.4883,VALID,0.169808,VALID,20.8335,VALID,228,VALID,0,
2003-04-26, 02:21:00,VALID,914.833,VALID,0,VALID,98.5633,VALID,0.186789,VALID,20.8527,VALID,228,VALID,0,
2003-04-26, 02:22:00,VALID,914.826,VALID,0,VALID,98.6104,VALID,0.254712,VALID,20.8594,VALID,228,VALID,0,
2003-04-26, 02:23:00,VALID,914.821,VALID,0,VALID,98.6193,VALID,0.169808,VALID,20.8729,VALID,228,VALID,0,
2003-04-26, 02:24:00,VALID,914.789,VALID,0,VALID,98.6307,VALID,0.220751,VALID,20.8823,VALID,235,VALID,0.044807,
2003-04-26, 02:25:00,VALID,914.772,VALID,0,VALID,98.5722,VALID,0.254712,VALID,20.8788,VALID,240,VALID,0.205134,
2003-04-26, 02:26:00,VALID,914.755,VALID,0,VALID,98.5061,VALID,0.20377,VALID,20.8524,VALID,240,VALID,0.0528846,
2003-04-26, 02:27:00,VALID,914.742,VALID,0,VALID,98.4794,VALID,0.220751,VALID,20.8368,VALID,240,VALID,0.088049,
2003-04-26, 02:28:00,VALID,914.745,VALID,0,VALID,98.4934,VALID,0.169808,VALID,20.8502,VALID,240,VALID,0.063528,
2003-04-26, 02:29:00,VALID,914.728,VALID,0,VALID,98.4794,VALID,0.237732,VALID,20.8661,VALID,307,VALID,0.302679,
2003-04-26, 02:30:00,VALID,914.724,VALID,0,VALID,98.5036,VALID,0.186789,VALID,20.8591,VALID,24,VALID,0.328325,
2003-04-26, 02:31:00,VALID,914.732,VALID,0,VALID,98.5341,VALID,0.186789,VALID,20.882,VALID,20,VALID,0.360322,
2003-04-26, 02:32:00,VALID,914.716,VALID,0,VALID,98.5608,VALID,0.20377,VALID,20.895,VALID,20,VALID,0.202908,
2003-04-26, 02:33:00,VALID,914.711,VALID,0,VALID,98.5837,VALID,0.237732,VALID,20.9144,VALID,20,VALID,0.0308388,
2003-04-26, 02:34:00,VALID,914.701,VALID,0,VALID,98.5074,VALID,0.20377,VALID,20.9106,VALID,20,VALID,0.00117188,
2003-04-26, 02:35:00,VALID,914.695,VALID,0,VALID,98.4514,VALID,0.220751,VALID,20.9111,VALID,20,VALID,0.00507812,
2003-04-26, 02:36:00,VALID,914.69,VALID,0,VALID,98.4184,VALID,0.186789,VALID,20.9044,VALID,20,VALID,0.00303819,
2003-04-26, 02:37:00,VALID,914.699,VALID,0,VALID,98.4057,VALID,0.254712,VALID,20.9144,VALID,20,VALID,0,
2003-04-26, 02:38:00,VALID,914.695,VALID,0,VALID,98.4158,VALID,0.220751,VALID,20.9079,VALID,20,VALID,0.160156,
2003-04-26, 02:39:00,VALID,914.702,VALID,0,VALID,98.3955,VALID,0.220751,VALID,20.9082,VALID,20,VALID,0.240179,
2003-04-26, 02:40:00,VALID,914.69,VALID,0,VALID,98.4489,VALID,0.186789,VALID,20.9071,VALID,20,VALID,0.250601,
2003-04-26, 02:41:00,VALID,914.674,VALID,0,VALID,98.4845,VALID,0.186789,VALID,20.9405,VALID,20,VALID,0.118877,
2003-04-26, 02:42:00,VALID,914.663,VALID,0,VALID,98.4464,VALID,0.20377,VALID,20.9467,VALID,20,VALID,0,
2003-04-26, 02:43:00,VALID,914.665,VALID,0,VALID,98.4031,VALID,0.220751,VALID,20.9432,VALID,20,VALID,0,
2003-04-26, 02:44:00,VALID,914.648,VALID,0,VALID,98.3624,VALID,0.271693,VALID,20.94,VALID,20,VALID,0,
2003-04-26, 02:45:00,VALID,914.649,VALID,0,VALID,98.3713,VALID,0.20377,VALID,20.9435,VALID,20,VALID,0,
2003-04-26, 02:46:00,VALID,914.647,VALID,0,VALID,98.3675,VALID,0.237732,VALID,20.9529,VALID,20,VALID,0,
2003-04-26, 02:47:00,VALID,914.636,VALID,0,VALID,98.3548,VALID,0.152827,VALID,20.9527,VALID,20,VALID,0,
2003-04-26, 02:48:00,VALID,914.639,VALID,0,VALID,98.276,VALID,0.220751,VALID,20.9567,VALID,20,VALID,0,
2003-04-26, 02:49:00,VALID,914.617,VALID,0,VALID,98.1819,VALID,0.186789,VALID,20.9276,VALID,20,VALID,0,
2003-04-26, 02:50:00,VALID,914.599,VALID,0,VALID,98.0967,VALID,0.20377,VALID,20.899,VALID,20,VALID,0.0503472,
2003-04-26, 02:51:00,VALID,914.592,VALID,0,VALID,98.1221,VALID,0.169808,VALID,20.8885,VALID,268,VALID,0.32921,
2003-04-26, 02:52:00,VALID,914.58,VALID,0,VALID,98.1285,VALID,0.254712,VALID,20.8723,VALID,202,VALID,0.246553,
2003-04-26, 02:53:00,VALID,914.574,VALID,0,VALID,98.1399,VALID,0.20377,VALID,20.8559,VALID,202,VALID,0.257813,
2003-04-26, 02:54:00,VALID,914.585,VALID,0,VALID,98.1704,VALID,0.20377,VALID,20.8567,VALID,202,VALID,0.0833333,
2003-04-26, 02:55:00,VALID,914.586,VALID,0,VALID,98.2378,VALID,0.169808,VALID,20.8465,VALID,202,VALID,0.00485642,
2003-04-26, 02:56:00,VALID,914.596,VALID,0,VALID,98.3179,VALID,0.186789,VALID,20.8462,VALID,198,VALID,0.0501645,
2003-04-26, 02:57:00,VALID,914.613,VALID,0,VALID,98.3777,VALID,0.254712,VALID,20.8726,VALID,198,VALID,0,
2003-04-26, 02:58:00,VALID,914.627,VALID,0,VALID,98.4273,VALID,0.152827,VALID,20.8761,VALID,198,VALID,0.0482772,
2003-04-26, 02:59:00,VALID,914.64,VALID,0,VALID,98.4324,VALID,0.169808,VALID,20.8688,VALID,182,VALID,0.263731,
2003-04-26, 03:00:00,VALID,914.652,VALID,0,VALID,98.3662,VALID,0.20377,VALID,20.8664,VALID,179,VALID,0.308811,
2003-04-26, 03:01:00,VALID,914.639,VALID,0,VALID,98.3116,VALID,0.20377,VALID,20.85,VALID,179,VALID,0.089227,
2003-04-26, 03:02:00,VALID,914.635,VALID,0,VALID,98.3497,VALID,0.220751,VALID,20.8437,VALID,179,VALID,0,
2003-04-26, 03:03:00,VALID,914.635,VALID,0,VALID,98.3599,VALID,0.186789,VALID,20.8432,VALID,179,VALID,0.0185547,
2003-04-26, 03:04:00,VALID,914.637,VALID,0,VALID,98.337,VALID,0.220751,VALID,20.8362,VALID,182,VALID,0.249349,
2003-04-26, 03:05:00,VALID,914.647,VALID,0,VALID,98.3395,VALID,0.20377,VALID,20.8427,VALID,183,VALID,0,
2003-04-26, 03:06:00,VALID,914.66,VALID,0,VALID,98.3408,VALID,0.169808,VALID,20.8397,VALID,182,VALID,0.027114,
2003-04-26, 03:07:00,VALID,914.66,VALID,0,VALID,98.2658,VALID,0.186789,VALID,20.8494,VALID,177,VALID,0.127009,
2003-04-26, 03:08:00,VALID,914.661,VALID,0,VALID,98.2264,VALID,0.237732,VALID,20.8562,VALID,107,VALID,0.298478,
2003-04-26, 03:09:00,VALID,914.659,VALID,0,VALID,98.1653,VALID,0.186789,VALID,20.8462,VALID,105,VALID,0.0658784,
2003-04-26, 03:10:00,VALID,914.641,VALID,0,VALID,98.2187,VALID,0.186789,VALID,20.8465,VALID,105,VALID,0.00534539,
2003-04-26, 03:11:00,VALID,914.643,VALID,0,VALID,98.1844,VALID,0.20377,VALID,20.8467,VALID,105,VALID,0.139732,
2003-04-26, 03:12:00,VALID,914.638,VALID,0,VALID,98.0967,VALID,0.237732,VALID,20.8238,VALID,105,VALID,0.107372,
2003-04-26, 03:13:00,VALID,914.634,VALID,0,VALID,98.1946,VALID,0.20377,VALID,20.8168,VALID,93,VALID,0.513731,
2003-04-26, 03:14:00,VALID,914.636,VALID,0,VALID,98.3141,VALID,0.186789,VALID,20.8338,VALID,79,VALID,0.560764,
2003-04-26, 03:15:00,VALID,914.626,VALID,0,VALID,98.3866,VALID,0.169808,VALID,20.8465,VALID,72,VALID,0.566201,
2003-04-26, 03:16:00,VALID,914.627,VALID,0,VALID,98.2989,VALID,0.169808,VALID,20.8594,VALID,61,VALID,0.67832,
2003-04-26, 03:17:00,VALID,914.613,VALID,0,VALID,98.248,VALID,0.169808,VALID,20.8634,VALID,61,VALID,0.546484,
2003-04-26, 03:18:00,VALID,914.599,VALID,0,VALID,98.2035,VALID,0.152827,VALID,20.8502,VALID,61,VALID,0.444227,
2003-04-26, 03:19:00,VALID,914.589,VALID,0,VALID,98.159,VALID,0.20377,VALID,20.8236,VALID,61,VALID,0.46072,
2003-04-26, 03:20:00,VALID,914.573,VALID,0,VALID,98.1374,VALID,0.118866,VALID,20.8211,VALID,61,VALID,0.300551,
2003-04-26, 03:21:00,VALID,914.574,VALID,0,VALID,98.173,VALID,0.220751,VALID,20.8249,VALID,63,VALID,0.358705,
2003-04-26, 03:22:00,VALID,914.556,VALID,0,VALID,98.2187,VALID,0.135847,VALID,20.7944,VALID,63,VALID,0.445313,
2003-04-26, 03:23:00,VALID,914.537,VALID,0,VALID,98.2912,VALID,0.20377,VALID,20.8111,VALID,67,VALID,0.287796,
2003-04-26, 03:24:00,VALID,914.535,VALID,0,VALID,98.3154,VALID,0.186789,VALID,20.7977,VALID,114,VALID,0.310855,
2003-04-26, 03:25:00,VALID,914.512,VALID,0,VALID,98.3459,VALID,0.220751,VALID,20.802,VALID,103,VALID,0.325446,
2003-04-26, 03:26:00,VALID,914.495,VALID,0,VALID,98.4438,VALID,0.169808,VALID,20.785,VALID,104,VALID,0.215144,
2003-04-26, 03:27:00,VALID,914.475,VALID,0,VALID,98.5099,VALID,0.254712,VALID,20.782,VALID,111,VALID,0.0345644,
2003-04-26, 03:28:00,VALID,914.447,VALID,0,VALID,98.585,VALID,0.152827,VALID,20.7815,VALID,104,VALID,0.150825,
2003-04-26, 03:29:00,VALID,914.425,VALID,0,VALID,98.5621,VALID,0.220751,VALID,20.7882,VALID,77,VALID,0.616982,
2003-04-26, 03:30:00,VALID,914.402,VALID,0,VALID,98.5048,VALID,0.169808,VALID,20.7718,VALID,86,VALID,0.513672,
2003-04-26, 03:31:00,VALID,914.366,VALID,0,VALID,98.5735,VALID,0.186789,VALID,20.7591,VALID,66,VALID,0.516797,
2003-04-26, 03:32:00,VALID,914.349,VALID,0,VALID,98.6244,VALID,0.220751,VALID,20.7432,VALID,79,VALID,0.388021,
2003-04-26, 03:33:00,VALID,914.332,VALID,0,VALID,98.6435,VALID,0.169808,VALID,20.7437,VALID,95,VALID,0.403429,
2003-04-26, 03:34:00,VALID,914.318,VALID,0,VALID,98.6892,VALID,0.169808,VALID,20.7233,VALID,136,VALID,0.525506,
2003-04-26, 03:35:00,VALID,914.293,VALID,0,VALID,98.688,VALID,0.20377,VALID,20.7206,VALID,155,VALID,0.538839,
2003-04-26, 03:36:00,VALID,914.276,VALID,0,VALID,98.7617,VALID,0.220751,VALID,20.7009,VALID,155,VALID,0.251202,